Year,Month,Day,Hour,Minute,Value (Times are PST for temperature in C)
2010,07,08,00,00,19.40
2010,07,08,00,01,19.40
2010,07,08,00,02,19.40
2010,07,08,00,03,19.30
2010,07,08,00,04,19.30
2010,07,08,00,05,19.30
2010,07,08,00,06,19.30
2010,07,08,00,07,19.20
2010,07,08,00,08,19.20
2010,07,08,00,09,19.20
2010,07,08,00,10,19.20
2010,07,08,00,11,19.20
2010,07,08,00,12,19.10
2010,07,08,00,13,19.10
2010,07,08,00,14,19.10
2010,07,08,00,15,19.10
2010,07,08,00,16,19.10
2010,07,08,00,17,19.10
2010,07,08,00,18,19.10
2010,07,08,00,19,19.10
2010,07,08,00,20,19.10
2010,07,08,00,21,19.10
2010,07,08,00,22,19.10
2010,07,08,00,23,19.10
2010,07,08,00,24,19.10
2010,07,08,00,25,19.10
2010,07,08,00,26,19.10
2010,07,08,00,27,19.10
2010,07,08,00,28,19.10
2010,07,08,00,29,19.10
2010,07,08,00,30,19.10
2010,07,08,00,31,19.10
2010,07,08,00,32,19.10
2010,07,08,00,33,19.10
2010,07,08,00,34,19.00
2010,07,08,00,35,19.00
2010,07,08,00,36,19.00
2010,07,08,00,37,18.90
2010,07,08,00,38,18.90
2010,07,08,00,39,18.90
2010,07,08,00,40,18.90
2010,07,08,00,41,18.80
2010,07,08,00,42,18.80
2010,07,08,00,43,18.80
2010,07,08,00,44,18.70
2010,07,08,00,45,18.70
2010,07,08,00,46,18.70
2010,07,08,00,47,18.60
2010,07,08,00,48,18.60
2010,07,08,00,49,18.60
2010,07,08,00,50,18.50
2010,07,08,00,51,18.50
2010,07,08,00,52,18.40
2010,07,08,00,53,18.40
2010,07,08,00,54,18.40
2010,07,08,00,55,18.40
2010,07,08,00,56,18.40
2010,07,08,00,57,18.40
2010,07,08,00,58,18.30
2010,07,08,00,59,18.30
2010,07,08,01,00,18.30
2010,07,08,01,01,18.30
2010,07,08,01,02,18.30
2010,07,08,01,03,18.30
2010,07,08,01,04,18.20
2010,07,08,01,05,18.20
2010,07,08,01,06,18.20
2010,07,08,01,07,18.20
2010,07,08,01,08,18.20
2010,07,08,01,09,18.20
2010,07,08,01,10,18.20
2010,07,08,01,11,18.10
2010,07,08,01,12,18.10
2010,07,08,01,13,18.10
2010,07,08,01,14,18.10
2010,07,08,01,15,18.10
2010,07,08,01,16,18.10
2010,07,08,01,17,18.10
2010,07,08,01,18,18.10
2010,07,08,01,19,18.10
2010,07,08,01,20,18.10
2010,07,08,01,21,18.10
2010,07,08,01,22,18.20
2010,07,08,01,23,18.20
2010,07,08,01,24,18.20
2010,07,08,01,25,18.20
2010,07,08,01,26,18.30
2010,07,08,01,27,18.30
2010,07,08,01,28,18.40
2010,07,08,01,29,18.40
2010,07,08,01,30,18.50
2010,07,08,01,31,18.60
2010,07,08,01,32,18.60
2010,07,08,01,33,18.70
2010,07,08,01,34,18.70
2010,07,08,01,35,18.80
2010,07,08,01,36,18.80
2010,07,08,01,37,18.80
2010,07,08,01,38,18.80
2010,07,08,01,39,18.70
2010,07,08,01,40,18.70
2010,07,08,01,41,18.70
2010,07,08,01,42,18.70
2010,07,08,01,43,18.60
2010,07,08,01,44,18.60
2010,07,08,01,45,18.60
2010,07,08,01,46,18.70
2010,07,08,01,47,18.70
2010,07,08,01,48,18.70
2010,07,08,01,49,18.70
2010,07,08,01,50,18.70
2010,07,08,01,51,18.60
2010,07,08,01,52,18.60
2010,07,08,01,53,18.50
2010,07,08,01,54,18.50
2010,07,08,01,55,18.40
2010,07,08,01,56,18.40
2010,07,08,01,57,18.30
2010,07,08,01,58,18.30
2010,07,08,01,59,18.20
2010,07,08,02,00,18.20
2010,07,08,02,01,18.10
2010,07,08,02,02,18.10
2010,07,08,02,03,18.10
2010,07,08,02,04,18.00
2010,07,08,02,05,18.00
2010,07,08,02,06,17.90
2010,07,08,02,07,17.90
2010,07,08,02,08,17.80
2010,07,08,02,09,17.80
2010,07,08,02,10,17.70
2010,07,08,02,11,17.70
2010,07,08,02,12,17.60
2010,07,08,02,13,17.60
2010,07,08,02,14,17.50
2010,07,08,02,15,17.50
2010,07,08,02,16,17.40
2010,07,08,02,17,17.40
2010,07,08,02,18,17.30
2010,07,08,02,19,17.30
2010,07,08,02,20,17.30
2010,07,08,02,21,17.20
2010,07,08,02,22,17.20
2010,07,08,02,23,17.20
2010,07,08,02,24,17.10
2010,07,08,02,25,17.10
2010,07,08,02,26,17.10
2010,07,08,02,27,17.00
2010,07,08,02,28,17.00
2010,07,08,02,29,17.00
2010,07,08,02,30,16.90
2010,07,08,02,31,16.90
2010,07,08,02,32,16.90
2010,07,08,02,33,16.90
2010,07,08,02,34,16.90
2010,07,08,02,35,16.80
2010,07,08,02,36,16.80
2010,07,08,02,37,16.80
2010,07,08,02,38,16.80
2010,07,08,02,39,16.80
2010,07,08,02,40,16.80
2010,07,08,02,41,16.90
2010,07,08,02,42,16.80
2010,07,08,02,43,16.80
2010,07,08,02,44,16.80
2010,07,08,02,45,16.80
2010,07,08,02,46,16.80
2010,07,08,02,47,16.80
2010,07,08,02,48,16.80
2010,07,08,02,49,16.80
2010,07,08,02,50,16.80
2010,07,08,02,51,16.70
2010,07,08,02,52,16.70
2010,07,08,02,53,16.70
2010,07,08,02,54,16.70
2010,07,08,02,55,16.70
2010,07,08,02,56,16.60
2010,07,08,02,57,16.60
2010,07,08,02,58,16.60
2010,07,08,02,59,16.60
2010,07,08,03,00,16.60
2010,07,08,03,01,16.60
2010,07,08,03,02,16.50
2010,07,08,03,03,16.50
2010,07,08,03,04,16.50
2010,07,08,03,05,16.40
2010,07,08,03,06,16.40
2010,07,08,03,07,16.40
2010,07,08,03,08,16.40
2010,07,08,03,09,16.30
2010,07,08,03,10,16.30
2010,07,08,03,11,16.30
2010,07,08,03,12,16.30
2010,07,08,03,13,16.30
2010,07,08,03,14,16.30
2010,07,08,03,15,16.30
2010,07,08,03,16,16.30
2010,07,08,03,17,16.30
2010,07,08,03,18,16.30
2010,07,08,03,19,16.30
2010,07,08,03,20,16.30
2010,07,08,03,21,16.40
2010,07,08,03,22,16.40
2010,07,08,03,23,16.50
2010,07,08,03,24,16.50
2010,07,08,03,25,16.60
2010,07,08,03,26,16.60
2010,07,08,03,27,16.70
2010,07,08,03,28,16.70
2010,07,08,03,29,16.70
2010,07,08,03,30,16.80
2010,07,08,03,31,16.80
2010,07,08,03,32,16.80
2010,07,08,03,33,16.80
2010,07,08,03,34,16.80
2010,07,08,03,35,16.80
2010,07,08,03,36,16.80
2010,07,08,03,37,16.80
2010,07,08,03,38,16.70
2010,07,08,03,39,16.70
2010,07,08,03,40,16.70
2010,07,08,03,41,16.70
2010,07,08,03,42,16.70
2010,07,08,03,43,16.70
2010,07,08,03,44,16.70
2010,07,08,03,45,16.70
2010,07,08,03,46,16.70
2010,07,08,03,47,16.70
2010,07,08,03,48,16.70
2010,07,08,03,49,16.70
2010,07,08,03,50,16.70
2010,07,08,03,51,16.80
2010,07,08,03,52,16.80
2010,07,08,03,53,16.80
2010,07,08,03,54,16.80
2010,07,08,03,55,16.90
2010,07,08,03,56,16.90
2010,07,08,03,57,17.00
2010,07,08,03,58,17.00
2010,07,08,03,59,17.10
2010,07,08,04,00,17.10
2010,07,08,04,01,17.10
2010,07,08,04,02,17.10
2010,07,08,04,03,17.20
2010,07,08,04,04,17.20
2010,07,08,04,05,17.20
2010,07,08,04,06,17.30
2010,07,08,04,07,17.30
2010,07,08,04,08,17.30
2010,07,08,04,09,17.30
2010,07,08,04,10,17.40
2010,07,08,04,11,17.40
2010,07,08,04,12,17.40
2010,07,08,04,13,17.50
2010,07,08,04,14,17.50
2010,07,08,04,15,17.50
2010,07,08,04,16,17.60
2010,07,08,04,17,17.60
2010,07,08,04,18,17.60
2010,07,08,04,19,17.60
2010,07,08,04,20,17.60
2010,07,08,04,21,17.70
2010,07,08,04,22,17.70
2010,07,08,04,23,17.70
2010,07,08,04,24,17.70
2010,07,08,04,25,17.70
2010,07,08,04,26,17.70
2010,07,08,04,27,17.70
2010,07,08,04,28,17.70
2010,07,08,04,29,17.70
2010,07,08,04,30,17.80
2010,07,08,04,31,17.70
2010,07,08,04,32,17.70
2010,07,08,04,33,17.70
2010,07,08,04,34,17.70
2010,07,08,04,35,17.70
2010,07,08,04,36,17.70
2010,07,08,04,37,17.60
2010,07,08,04,38,17.60
2010,07,08,04,39,17.60
2010,07,08,04,40,17.50
2010,07,08,04,41,17.50
2010,07,08,04,42,17.50
2010,07,08,04,43,17.40
2010,07,08,04,44,17.40
2010,07,08,04,45,17.40
2010,07,08,04,46,17.40
2010,07,08,04,47,17.40
2010,07,08,04,48,17.30
2010,07,08,04,49,17.30
2010,07,08,04,50,17.30
2010,07,08,04,51,17.30
2010,07,08,04,52,17.30
2010,07,08,04,53,17.30
2010,07,08,04,54,17.20
2010,07,08,04,55,17.20
2010,07,08,04,56,17.20
2010,07,08,04,57,17.20
2010,07,08,04,58,17.20
2010,07,08,04,59,17.20
2010,07,08,05,00,17.10
2010,07,08,05,01,17.00
2010,07,08,05,02,17.00
2010,07,08,05,03,16.90
2010,07,08,05,04,16.80
2010,07,08,05,05,16.80
2010,07,08,05,06,16.70
2010,07,08,05,07,16.60
2010,07,08,05,08,16.60
2010,07,08,05,09,16.50
2010,07,08,05,10,16.50
2010,07,08,05,11,16.40
2010,07,08,05,12,16.40
2010,07,08,05,13,16.30
2010,07,08,05,14,16.30
2010,07,08,05,15,16.30
2010,07,08,05,16,16.30
2010,07,08,05,17,16.30
2010,07,08,05,18,16.30
2010,07,08,05,19,16.40
2010,07,08,05,20,16.40
2010,07,08,05,21,16.50
2010,07,08,05,22,16.60
2010,07,08,05,23,16.70
2010,07,08,05,24,16.80
2010,07,08,05,25,16.90
2010,07,08,05,26,17.00
2010,07,08,05,27,17.10
2010,07,08,05,28,17.20
2010,07,08,05,29,17.30
2010,07,08,05,30,17.30
2010,07,08,05,31,17.40
2010,07,08,05,32,17.50
2010,07,08,05,33,17.50
2010,07,08,05,34,17.50
2010,07,08,05,35,17.50
2010,07,08,05,36,17.50
2010,07,08,05,37,17.50
2010,07,08,05,38,17.40
2010,07,08,05,39,17.40
2010,07,08,05,40,17.30
2010,07,08,05,41,17.30
2010,07,08,05,42,17.20
2010,07,08,05,43,17.20
2010,07,08,05,44,17.10
2010,07,08,05,45,17.10
2010,07,08,05,46,17.10
2010,07,08,05,47,17.00
2010,07,08,05,48,17.00
2010,07,08,05,49,17.00
2010,07,08,05,50,17.00
2010,07,08,05,51,17.10
2010,07,08,05,52,17.10
2010,07,08,05,53,17.10
2010,07,08,05,54,17.20
2010,07,08,05,55,17.30
2010,07,08,05,56,17.40
2010,07,08,05,57,17.50
2010,07,08,05,58,17.60
2010,07,08,05,59,17.70
2010,07,08,06,00,17.80
2010,07,08,06,01,17.90
2010,07,08,06,02,17.90
2010,07,08,06,03,17.90
2010,07,08,06,04,17.90
2010,07,08,06,05,17.80
2010,07,08,06,06,17.80
2010,07,08,06,07,17.80
2010,07,08,06,08,17.70
2010,07,08,06,09,17.60
2010,07,08,06,10,17.50
2010,07,08,06,11,17.30
2010,07,08,06,12,17.20
2010,07,08,06,13,17.10
2010,07,08,06,14,17.00
2010,07,08,06,15,16.90
2010,07,08,06,16,16.80
2010,07,08,06,17,16.70
2010,07,08,06,18,16.70
2010,07,08,06,19,16.90
2010,07,08,06,20,17.10
2010,07,08,06,21,17.30
2010,07,08,06,22,17.50
2010,07,08,06,23,17.70
2010,07,08,06,24,17.90
2010,07,08,06,25,18.20
2010,07,08,06,26,18.40
2010,07,08,06,27,18.60
2010,07,08,06,28,18.80
2010,07,08,06,29,19.00
2010,07,08,06,30,19.10
2010,07,08,06,31,19.30
2010,07,08,06,32,19.40
2010,07,08,06,33,19.50
2010,07,08,06,34,19.70
2010,07,08,06,35,19.80
2010,07,08,06,36,19.80
2010,07,08,06,37,19.90
2010,07,08,06,38,20.00
2010,07,08,06,39,20.00
2010,07,08,06,40,20.10
2010,07,08,06,41,20.10
2010,07,08,06,42,20.20
2010,07,08,06,43,20.20
2010,07,08,06,44,20.20
2010,07,08,06,45,20.30
2010,07,08,06,46,20.30
2010,07,08,06,47,20.30
2010,07,08,06,48,20.40
2010,07,08,06,49,20.40
2010,07,08,06,50,20.40
2010,07,08,06,51,20.50
2010,07,08,06,52,20.50
2010,07,08,06,53,20.60
2010,07,08,06,54,20.60
2010,07,08,06,55,20.70
2010,07,08,06,56,20.70
2010,07,08,06,57,20.80
2010,07,08,06,58,20.80
2010,07,08,06,59,20.90
2010,07,08,07,00,20.90
2010,07,08,07,01,21.00
2010,07,08,07,02,21.10
2010,07,08,07,03,21.10
2010,07,08,07,04,21.20
2010,07,08,07,05,21.20
2010,07,08,07,06,21.30
2010,07,08,07,07,21.30
2010,07,08,07,08,21.40
2010,07,08,07,09,21.40
2010,07,08,07,10,21.50
2010,07,08,07,11,21.60
2010,07,08,07,12,21.60
2010,07,08,07,13,21.60
2010,07,08,07,14,21.70
2010,07,08,07,15,21.70
2010,07,08,07,16,21.70
2010,07,08,07,17,21.80
2010,07,08,07,18,21.80
2010,07,08,07,19,21.80
2010,07,08,07,20,21.80
2010,07,08,07,21,21.80
2010,07,08,07,22,21.80
2010,07,08,07,23,21.80
2010,07,08,07,24,21.90
2010,07,08,07,25,21.90
2010,07,08,07,26,21.90
2010,07,08,07,27,21.90
2010,07,08,07,28,22.00
2010,07,08,07,29,22.00
2010,07,08,07,30,22.00
2010,07,08,07,31,22.10
2010,07,08,07,32,22.10
2010,07,08,07,33,22.10
2010,07,08,07,34,22.10
2010,07,08,07,35,22.20
2010,07,08,07,36,22.20
2010,07,08,07,37,22.30
2010,07,08,07,38,22.40
2010,07,08,07,39,22.40
2010,07,08,07,40,22.50
2010,07,08,07,41,22.60
2010,07,08,07,42,22.60
2010,07,08,07,43,22.70
2010,07,08,07,44,22.70
2010,07,08,07,45,22.80
2010,07,08,07,46,22.80
2010,07,08,07,47,22.80
2010,07,08,07,48,22.80
2010,07,08,07,49,22.90
2010,07,08,07,50,22.90
2010,07,08,07,51,23.00
2010,07,08,07,52,23.00
2010,07,08,07,53,23.10
2010,07,08,07,54,23.10
2010,07,08,07,55,23.20
2010,07,08,07,56,23.20
2010,07,08,07,57,23.30
2010,07,08,07,58,23.30
2010,07,08,07,59,23.40
2010,07,08,08,00,23.40
2010,07,08,08,01,23.50
2010,07,08,08,02,23.50
2010,07,08,08,03,23.60
2010,07,08,08,04,23.60
2010,07,08,08,05,23.70
2010,07,08,08,06,23.70
2010,07,08,08,07,23.80
2010,07,08,08,08,23.80
2010,07,08,08,09,23.90
2010,07,08,08,10,23.90
2010,07,08,08,11,24.00
2010,07,08,08,12,24.00
2010,07,08,08,13,24.10
2010,07,08,08,14,24.20
2010,07,08,08,15,24.20
2010,07,08,08,16,24.30
2010,07,08,08,17,24.30
2010,07,08,08,18,24.30
2010,07,08,08,19,24.30
2010,07,08,08,20,24.30
2010,07,08,08,21,24.40
2010,07,08,08,22,24.40
2010,07,08,08,23,24.50
2010,07,08,08,24,24.60
2010,07,08,08,25,24.60
2010,07,08,08,26,24.60
2010,07,08,08,27,24.60
2010,07,08,08,28,24.70
2010,07,08,08,29,24.70
2010,07,08,08,30,24.70
2010,07,08,08,31,24.80
2010,07,08,08,32,24.80
2010,07,08,08,33,24.80
2010,07,08,08,34,24.80
2010,07,08,08,35,24.80
2010,07,08,08,36,24.70
2010,07,08,08,37,24.60
2010,07,08,08,38,24.60
2010,07,08,08,39,24.60
2010,07,08,08,40,24.60
2010,07,08,08,41,24.60
2010,07,08,08,42,24.60
2010,07,08,08,43,24.70
2010,07,08,08,44,24.70
2010,07,08,08,45,24.80
2010,07,08,08,46,24.80
2010,07,08,08,47,24.80
2010,07,08,08,48,24.80
2010,07,08,08,49,24.90
2010,07,08,08,50,24.90
2010,07,08,08,51,24.90
2010,07,08,08,52,24.90
2010,07,08,08,53,24.90
2010,07,08,08,54,24.90
2010,07,08,08,55,24.90
2010,07,08,08,56,24.80
2010,07,08,08,57,24.80
2010,07,08,08,58,24.80
2010,07,08,08,59,24.70
2010,07,08,09,00,24.70
2010,07,08,09,01,24.70
2010,07,08,09,02,24.70
2010,07,08,09,03,24.70
2010,07,08,09,04,24.80
2010,07,08,09,05,24.80
2010,07,08,09,06,24.80
2010,07,08,09,07,24.80
2010,07,08,09,08,24.80
2010,07,08,09,09,24.80
2010,07,08,09,10,24.90
2010,07,08,09,11,25.00
2010,07,08,09,12,25.10
2010,07,08,09,13,25.10
2010,07,08,09,14,25.20
2010,07,08,09,15,25.10
2010,07,08,09,16,25.10
2010,07,08,09,17,25.00
2010,07,08,09,18,25.00
2010,07,08,09,19,24.90
2010,07,08,09,20,24.90
2010,07,08,09,21,24.90
2010,07,08,09,22,24.90
2010,07,08,09,23,24.90
2010,07,08,09,24,24.90
2010,07,08,09,25,25.00
2010,07,08,09,26,25.10
2010,07,08,09,27,25.20
2010,07,08,09,28,25.20
2010,07,08,09,29,25.30
2010,07,08,09,30,25.40
2010,07,08,09,31,25.50
2010,07,08,09,32,25.50
2010,07,08,09,33,25.60
2010,07,08,09,34,25.60
2010,07,08,09,35,25.60
2010,07,08,09,36,25.70
2010,07,08,09,37,25.80
2010,07,08,09,38,25.90
2010,07,08,09,39,25.90
2010,07,08,09,40,25.90
2010,07,08,09,41,26.00
2010,07,08,09,42,26.10
2010,07,08,09,43,26.10
2010,07,08,09,44,26.20
2010,07,08,09,45,26.20
2010,07,08,09,46,26.20
2010,07,08,09,47,26.20
2010,07,08,09,48,26.30
2010,07,08,09,49,26.30
2010,07,08,09,50,26.40
2010,07,08,09,51,26.40
2010,07,08,09,52,26.50
2010,07,08,09,53,26.50
2010,07,08,09,54,26.60
2010,07,08,09,55,26.60
2010,07,08,09,56,26.60
2010,07,08,09,57,26.50
2010,07,08,09,58,26.50
2010,07,08,09,59,26.50
2010,07,08,10,00,26.50
2010,07,08,10,01,26.50
2010,07,08,10,02,26.60
2010,07,08,10,03,26.60
2010,07,08,10,04,26.60
2010,07,08,10,05,26.70
2010,07,08,10,06,26.80
2010,07,08,10,07,26.80
2010,07,08,10,08,26.80
2010,07,08,10,09,26.80
2010,07,08,10,10,26.80
2010,07,08,10,11,26.80
2010,07,08,10,12,26.90
2010,07,08,10,13,26.90
2010,07,08,10,14,27.00
2010,07,08,10,15,27.00
2010,07,08,10,16,27.10
2010,07,08,10,17,27.10
2010,07,08,10,18,27.20
2010,07,08,10,19,27.10
2010,07,08,10,20,27.10
2010,07,08,10,21,27.10
2010,07,08,10,22,27.10
2010,07,08,10,23,27.10
2010,07,08,10,24,27.10
2010,07,08,10,25,27.10
2010,07,08,10,26,27.10
2010,07,08,10,27,27.20
2010,07,08,10,28,27.20
2010,07,08,10,29,27.20
2010,07,08,10,30,27.30
2010,07,08,10,31,27.30
2010,07,08,10,32,27.40
2010,07,08,10,33,27.40
2010,07,08,10,34,27.40
2010,07,08,10,35,27.40
2010,07,08,10,36,27.40
2010,07,08,10,37,27.50
2010,07,08,10,38,27.50
2010,07,08,10,39,27.40
2010,07,08,10,40,27.40
2010,07,08,10,41,27.40
2010,07,08,10,42,27.40
2010,07,08,10,43,27.40
2010,07,08,10,44,27.40
2010,07,08,10,45,27.50
2010,07,08,10,46,27.50
2010,07,08,10,47,27.60
2010,07,08,10,48,27.70
2010,07,08,10,49,27.70
2010,07,08,10,50,27.70
2010,07,08,10,51,27.70
2010,07,08,10,52,27.80
2010,07,08,10,53,27.80
2010,07,08,10,54,27.80
2010,07,08,10,55,27.80
2010,07,08,10,56,27.80
2010,07,08,10,57,27.80
2010,07,08,10,58,27.80
2010,07,08,10,59,27.80
2010,07,08,11,00,27.80
2010,07,08,11,01,27.80
2010,07,08,11,02,27.80
2010,07,08,11,03,27.70
2010,07,08,11,04,27.70
2010,07,08,11,05,27.60
2010,07,08,11,06,27.60
2010,07,08,11,07,27.70
2010,07,08,11,08,27.70
2010,07,08,11,09,27.80
2010,07,08,11,10,27.80
2010,07,08,11,11,27.80
2010,07,08,11,12,27.90
2010,07,08,11,13,28.00
2010,07,08,11,14,28.00
2010,07,08,11,15,28.10
2010,07,08,11,16,28.20
2010,07,08,11,17,28.30
2010,07,08,11,18,28.30
2010,07,08,11,19,28.30
2010,07,08,11,20,28.30
2010,07,08,11,21,28.30
2010,07,08,11,22,28.30
2010,07,08,11,23,28.40
2010,07,08,11,24,28.40
2010,07,08,11,25,28.40
2010,07,08,11,26,28.40
2010,07,08,11,27,28.40
2010,07,08,11,28,28.50
2010,07,08,11,29,28.50
2010,07,08,11,30,28.60
2010,07,08,11,31,28.60
2010,07,08,11,32,28.60
2010,07,08,11,33,28.50
2010,07,08,11,34,28.50
2010,07,08,11,35,28.50
2010,07,08,11,36,28.50
2010,07,08,11,37,28.40
2010,07,08,11,38,28.40
2010,07,08,11,39,28.40
2010,07,08,11,40,28.50
2010,07,08,11,41,28.50
2010,07,08,11,42,28.60
2010,07,08,11,43,28.60
2010,07,08,11,44,28.60
2010,07,08,11,45,28.60
2010,07,08,11,46,28.60
2010,07,08,11,47,28.60
2010,07,08,11,48,28.60
2010,07,08,11,49,28.70
2010,07,08,11,50,28.70
2010,07,08,11,51,28.80
2010,07,08,11,52,28.90
2010,07,08,11,53,28.90
2010,07,08,11,54,29.00
2010,07,08,11,55,29.00
2010,07,08,11,56,29.00
2010,07,08,11,57,28.90
2010,07,08,11,58,28.90
2010,07,08,11,59,29.00
2010,07,08,12,00,29.00
2010,07,08,12,01,29.10
2010,07,08,12,02,29.10
2010,07,08,12,03,29.10
2010,07,08,12,04,29.10
2010,07,08,12,05,29.10
2010,07,08,12,06,29.10
2010,07,08,12,07,29.10
2010,07,08,12,08,29.20
2010,07,08,12,09,29.20
2010,07,08,12,10,29.20
2010,07,08,12,11,29.10
2010,07,08,12,12,29.10
2010,07,08,12,13,29.10
2010,07,08,12,14,29.20
2010,07,08,12,15,29.20
2010,07,08,12,16,29.30
2010,07,08,12,17,29.30
2010,07,08,12,18,29.30
2010,07,08,12,19,29.40
2010,07,08,12,20,29.40
2010,07,08,12,21,29.50
2010,07,08,12,22,29.60
2010,07,08,12,23,29.60
2010,07,08,12,24,29.60
2010,07,08,12,25,29.60
2010,07,08,12,26,29.60
2010,07,08,12,27,29.60
2010,07,08,12,28,29.60
2010,07,08,12,29,29.70
2010,07,08,12,30,29.70
2010,07,08,12,31,29.70
2010,07,08,12,32,29.70
2010,07,08,12,33,29.70
2010,07,08,12,34,29.80
2010,07,08,12,35,29.80
2010,07,08,12,36,29.80
2010,07,08,12,37,29.90
2010,07,08,12,38,29.90
2010,07,08,12,39,29.90
2010,07,08,12,40,29.90
2010,07,08,12,41,30.00
2010,07,08,12,42,30.00
2010,07,08,12,43,30.10
2010,07,08,12,44,30.00
2010,07,08,12,45,29.90
2010,07,08,12,46,29.80
2010,07,08,12,47,29.70
2010,07,08,12,48,29.60
2010,07,08,12,49,29.60
2010,07,08,12,50,29.60
2010,07,08,12,51,29.60
2010,07,08,12,52,29.60
2010,07,08,12,53,29.60
2010,07,08,12,54,29.60
2010,07,08,12,55,29.70
2010,07,08,12,56,29.70
2010,07,08,12,57,29.80
2010,07,08,12,58,29.80
2010,07,08,12,59,29.80
2010,07,08,13,00,29.80
2010,07,08,13,01,29.90
2010,07,08,13,02,29.80
2010,07,08,13,03,29.80
2010,07,08,13,04,29.80
2010,07,08,13,05,29.80
2010,07,08,13,06,29.90
2010,07,08,13,07,30.00
2010,07,08,13,08,30.10
2010,07,08,13,09,30.20
2010,07,08,13,10,30.20
2010,07,08,13,11,30.30
2010,07,08,13,12,30.20
2010,07,08,13,13,30.20
2010,07,08,13,14,30.20
2010,07,08,13,15,30.30
2010,07,08,13,16,30.30
2010,07,08,13,17,30.40
2010,07,08,13,18,30.40
2010,07,08,13,19,30.40
2010,07,08,13,20,30.40
2010,07,08,13,21,30.40
2010,07,08,13,22,30.40
2010,07,08,13,23,30.40
2010,07,08,13,24,30.40
2010,07,08,13,25,30.40
2010,07,08,13,26,30.30
2010,07,08,13,27,30.30
2010,07,08,13,28,30.30
2010,07,08,13,29,30.30
2010,07,08,13,30,30.30
2010,07,08,13,31,30.30
2010,07,08,13,32,30.30
2010,07,08,13,33,30.20
2010,07,08,13,34,30.10
2010,07,08,13,35,30.10
2010,07,08,13,36,30.10
2010,07,08,13,37,30.10
2010,07,08,13,38,30.10
2010,07,08,13,39,30.10
2010,07,08,13,40,30.10
2010,07,08,13,41,30.10
2010,07,08,13,42,30.10
2010,07,08,13,43,30.10
2010,07,08,13,44,30.10
2010,07,08,13,45,30.10
2010,07,08,13,46,30.20
2010,07,08,13,47,30.20
2010,07,08,13,48,30.30
2010,07,08,13,49,30.30
2010,07,08,13,50,30.30
2010,07,08,13,51,30.20
2010,07,08,13,52,30.20
2010,07,08,13,53,30.10
2010,07,08,13,54,30.10
2010,07,08,13,55,30.00
2010,07,08,13,56,29.90
2010,07,08,13,57,29.90
2010,07,08,13,58,29.90
2010,07,08,13,59,29.90
2010,07,08,14,00,29.90
2010,07,08,14,01,30.00
2010,07,08,14,02,30.00
2010,07,08,14,03,30.00
2010,07,08,14,04,30.10
2010,07,08,14,05,30.10
2010,07,08,14,06,30.10
2010,07,08,14,07,30.00
2010,07,08,14,08,30.10
2010,07,08,14,09,30.10
2010,07,08,14,10,30.10
2010,07,08,14,11,30.20
2010,07,08,14,12,30.20
2010,07,08,14,13,30.20
2010,07,08,14,14,30.10
2010,07,08,14,15,30.10
2010,07,08,14,16,30.10
2010,07,08,14,17,30.00
2010,07,08,14,18,30.00
2010,07,08,14,19,30.00
2010,07,08,14,20,30.00
2010,07,08,14,21,30.00
2010,07,08,14,22,30.00
2010,07,08,14,23,30.10
2010,07,08,14,24,30.20
2010,07,08,14,25,30.20
2010,07,08,14,26,30.20
2010,07,08,14,27,30.30
2010,07,08,14,28,30.40
2010,07,08,14,29,30.40
2010,07,08,14,30,30.50
2010,07,08,14,31,30.60
2010,07,08,14,32,30.70
2010,07,08,14,33,30.90
2010,07,08,14,34,31.00
2010,07,08,14,35,31.00
2010,07,08,14,36,31.10
2010,07,08,14,37,31.10
2010,07,08,14,38,31.10
2010,07,08,14,39,31.10
2010,07,08,14,40,31.10
2010,07,08,14,41,31.10
2010,07,08,14,42,31.10
2010,07,08,14,43,31.10
2010,07,08,14,44,31.20
2010,07,08,14,45,31.30
2010,07,08,14,46,31.30
2010,07,08,14,47,31.40
2010,07,08,14,48,31.50
2010,07,08,14,49,31.60
2010,07,08,14,50,31.60
2010,07,08,14,51,31.60
2010,07,08,14,52,31.50
2010,07,08,14,53,31.40
2010,07,08,14,54,31.30
2010,07,08,14,55,31.10
2010,07,08,14,56,31.10
2010,07,08,14,57,31.10
2010,07,08,14,58,31.10
2010,07,08,14,59,31.20
2010,07,08,15,00,31.30
2010,07,08,15,01,31.30
2010,07,08,15,02,31.30
2010,07,08,15,03,31.30
2010,07,08,15,04,31.30
2010,07,08,15,05,31.30
2010,07,08,15,06,31.30
2010,07,08,15,07,31.30
2010,07,08,15,08,31.30
2010,07,08,15,09,31.30
2010,07,08,15,10,31.30
2010,07,08,15,11,31.20
2010,07,08,15,12,31.20
2010,07,08,15,13,31.10
2010,07,08,15,14,31.10
2010,07,08,15,15,31.20
2010,07,08,15,16,31.30
2010,07,08,15,17,31.40
2010,07,08,15,18,31.40
2010,07,08,15,19,31.30
2010,07,08,15,20,31.30
2010,07,08,15,21,31.30
2010,07,08,15,22,31.30
2010,07,08,15,23,31.20
2010,07,08,15,24,31.20
2010,07,08,15,25,31.20
2010,07,08,15,26,31.30
2010,07,08,15,27,31.40
2010,07,08,15,28,31.50
2010,07,08,15,29,31.60
2010,07,08,15,30,31.50
2010,07,08,15,31,31.40
2010,07,08,15,32,31.30
2010,07,08,15,33,31.20
2010,07,08,15,34,31.10
2010,07,08,15,35,31.10
2010,07,08,15,36,31.10
2010,07,08,15,37,31.10
2010,07,08,15,38,31.20
2010,07,08,15,39,31.10
2010,07,08,15,40,31.10
2010,07,08,15,41,31.10
2010,07,08,15,42,31.10
2010,07,08,15,43,31.10
2010,07,08,15,44,31.10
2010,07,08,15,45,31.10
2010,07,08,15,46,31.00
2010,07,08,15,47,31.00
2010,07,08,15,48,31.00
2010,07,08,15,49,31.00
2010,07,08,15,50,30.90
2010,07,08,15,51,31.00
2010,07,08,15,52,31.10
2010,07,08,15,53,31.10
2010,07,08,15,54,31.20
2010,07,08,15,55,31.30
2010,07,08,15,56,31.40
2010,07,08,15,57,31.50
2010,07,08,15,58,31.60
2010,07,08,15,59,31.60
2010,07,08,16,00,31.70
2010,07,08,16,01,31.70
2010,07,08,16,02,31.70
2010,07,08,16,03,31.80
2010,07,08,16,04,31.80
2010,07,08,16,05,31.80
2010,07,08,16,06,31.80
2010,07,08,16,07,31.80
2010,07,08,16,08,31.70
2010,07,08,16,09,31.70
2010,07,08,16,10,31.60
2010,07,08,16,11,31.60
2010,07,08,16,12,31.70
2010,07,08,16,13,31.70
2010,07,08,16,14,31.70
2010,07,08,16,15,31.70
2010,07,08,16,16,31.70
2010,07,08,16,17,31.70
2010,07,08,16,18,31.80
2010,07,08,16,19,31.80
2010,07,08,16,20,31.80
2010,07,08,16,21,31.80
2010,07,08,16,22,31.80
2010,07,08,16,23,31.80
2010,07,08,16,24,31.90
2010,07,08,16,25,32.00
2010,07,08,16,26,32.10
2010,07,08,16,27,32.30
2010,07,08,16,28,32.40
2010,07,08,16,29,32.60
2010,07,08,16,30,32.70
2010,07,08,16,31,32.80
2010,07,08,16,32,32.90
2010,07,08,16,33,32.90
2010,07,08,16,34,32.90
2010,07,08,16,35,33.00
2010,07,08,16,36,33.10
2010,07,08,16,37,33.20
2010,07,08,16,38,33.20
2010,07,08,16,39,33.20
2010,07,08,16,40,33.20
2010,07,08,16,41,33.30
2010,07,08,16,42,33.40
2010,07,08,16,43,33.40
2010,07,08,16,44,33.40
2010,07,08,16,45,33.40
2010,07,08,16,46,33.30
2010,07,08,16,47,33.20
2010,07,08,16,48,33.20
2010,07,08,16,49,33.30
2010,07,08,16,50,33.30
2010,07,08,16,51,33.40
2010,07,08,16,52,33.50
2010,07,08,16,53,33.60
2010,07,08,16,54,33.60
2010,07,08,16,55,33.60
2010,07,08,16,56,33.60
2010,07,08,16,57,33.60
2010,07,08,16,58,33.40
2010,07,08,16,59,33.20
2010,07,08,17,00,33.00
2010,07,08,17,01,32.70
2010,07,08,17,02,32.40
2010,07,08,17,03,32.20
2010,07,08,17,04,32.00
2010,07,08,17,05,31.80
2010,07,08,17,06,31.60
2010,07,08,17,07,31.60
2010,07,08,17,08,31.50
2010,07,08,17,09,31.40
2010,07,08,17,10,31.30
2010,07,08,17,11,31.10
2010,07,08,17,12,31.00
2010,07,08,17,13,30.80
2010,07,08,17,14,30.60
2010,07,08,17,15,30.60
2010,07,08,17,16,30.50
2010,07,08,17,17,30.30
2010,07,08,17,18,30.30
2010,07,08,17,19,30.20